Location: ???????
(55.3754°N, 39.3545°E)
Time: 08:40:44
(UTC+00:00)

Cosmos 1140 Rocket - Pass Details

Date: 14 April 2026
Orbit: 740 x 761 km, 74.1° (Epoch: 9 May)

Event Time Altitude Azimuth Distance (km) Brightness Sun altitude
Rises 19:55:50 0° 331° (NNW) 3,216 8.2 -22.5°
Reaches altitude 10° 19:58:13 10° 330° (NNW) 2,284 7.1 -22.6°
Maximum altitude 20:03:22 74° 246° (WSW) 781 3.4 -22.9°
Enters shadow 20:04:17 59° 184° (S) 867 3.4 -22.9°
